Regional Weather Roundup
Issued by NWS Goodland, KS

Home | Current Version | Previous Version | Graphics & Text | Print | Product List | Glossary On
Versions: 1 2 3 4 5 6 7 8 9 10 11 12 13 14 15 16 17 18 19 20 21 22 23 24 25 26 27 28 29 30 31 32 33 34 35 36 37 38 39 40 41 42 43 44 45 46 47 48 49 50
876
ASUS43 KGLD 122308
RWRGLD

GOODLAND FORECAST AREA HOURLY WEATHER ROUNDUP
NATIONAL WEATHER SERVICE GOODLAND KS
400 PM MST TUE DEC 12 2017

...OFFICIAL OBSERVATIONS...

CITY           SKY/WX    TMP DP  RH WIND       PRES   REMARKS
GOODLAND KS    CLEAR     59  17  19 NW3       30.10F
HILL CITY KS   CLEAR     59  17  19 W3        30.07F
IMPERIAL NEB   CLEAR     60  19  20 W5        30.05F
MCCOOK NEB     CLEAR     57  21  24 SW5       30.04F
AKRON CO       CLEAR     57  13  17 MISG      30.12F
BURLINGTON CO  CLEAR     61  16  17 NW5       30.12F
LIMON CO       CLEAR     60  15  17 N6        30.17F
$$

...UNOFFICIAL OBSERVATIONS...

CITY           SKY/WX    TMP DP  RH WIND       PRES   REMARKS
COLBY KS       CLEAR     57  27  30 SW3       30.09F
LENORA KS        N/A     56  32  40 W5          N/A
NORTON KS      CLEAR     48  10  21 SW7       30.04
SHARON SPRINGS   N/A     63  20  19 CALM        N/A
TRENTON NEB      N/A     59  32  36 CALM        N/A
KIT CARSON CO    N/A     60  21  22 CALM        N/A
YUMA CO        FAIR      57  18  21 W5        30.09F
$$




USA.gov is the U.S. government's official web portal to all federal, state and local government web resources and services.